RH
18 25 26 23 35 31 35 38 41 31 24 24 25 27 26 25 22 19 16 16 16 23 45 47 45 48 51 56 57 38 64 80 97 99 98 94 100 98 100 99 99 99 96 90
29 26 18 15 17 24 35 39 38 30 25 24 24 24 30 28 24 19 17 15 15 22 57 59 54 54 49 48 48 40 71 90 99 99 99 99 91 99 92 100 93 100 92 93
49 31 17 17 18 19 22 32 34 34 25 22 25 30 33 27 25 23 20 18 16 24 50 62 58 56 52 50 40 43 67 89 88 87 99 98 100 97 100 100 100 98 86 81
46 37 37 25 19 18 20 16 19 21 26 33 33 47 33 32 30 25 21 19 19 25 47 59 60 56 53 49 42 47 69 81 84 87 99 98 99 100 98 98 100 99 98 92
32 41 44 42 30 18 20 18 22 22 26 32 35 50 42 32 34 28 23 20 18 28 41 55 48 49 53 44 45 49 68 81 91 87 99 98 100 99 98 100 97 99 96 85
25 20 23 28 26 22 16 20 22 24 34 47 49 52 46 42 32 27 21 19 19 24 48 62 61 56 55 45 55 48 67 74 96 86 98 96 99 98 99 100 100 100 96 92
27 26 20 18 21 20 25 29 48 52 59 56 38 44 35 32 27 26 24 21 18 20 60 67 62 59 59 47 53 52 67 71 98 91 90 99 98 100 99 99 100 100 100 97
40 41 24 18 20 26 28 32 58 53 75 57 36 52 49 37 33 28 26 22 26 44 73 64 55 57 57 44 44 49 73 83 97 92 90 90 89 98 99 100 99 99 100 100
50 37 32 18 17 19 24 37 32 44 56 65 55 49 41 41 42 37 26 28 34 60 72 68 57 58 55 42 37 38 59 80 96 97 94 92 92 94 99 99 100 100 100 100
44 55 36 38 30 20 26 28 37 43 49 56 54 53 57 51 50 41 36 38 41 60 69 67 56 53 51 46 44 40 43 56 93 96 94 94 97 95 96 100 99 99 100 100
47 53 48 40 48 30 30 30 33 40 51 47 61 52 52 54 51 48 50 44 41 31 55 71 56 51 49 53 50 45 44 46 91 97 94 94 91 92 94 99 100 99 100 98
57 59 66 46 48 44 47 32 40 59 54 51 59 51 39 45 44 56 55 46 41 32 38 47 65 65 50 52 53 49 46 44 46 95 98 96 93 92 97 93 87 96 97 95
65 77 68 54 50 58 43 43 45 46 45 56 61 47 47 51 51 46 46 55 50 58 53 62 65 82 76 50 53 53 47 37 41 67 98 98 97 96 97 93 89 85 84 82
62 70 48 60 70 64 47 39 52 61 65 56 42 34 59 57 53 42 45 52 56 60 67 68 70 75 81 90 75 48 47 35 31 49 75 98 98 98 97 99 90 90 82 77
63 65 55 48 40 37 42 31 39 75 69 63 51 50 59 49 48 58 56 57 56 69 71 70 64 66 61 76 75 92 68 48 43 46 49 63 96 99 97 100 91 88 87 83
60 64 60 55 44 48 46 38 34 39 57 49 34 25 29 40 56 63 58 59 65 77 72 69 69 56 69 75 85 78 70 84 64 51 47 50 58 75 97 99 99 94 93 91
75 75 75 73 62 52 51 38 34 29 35 42 35 62 39 60 59 60 61 62 70 68 65 82 65 58 62 60 63 70 81 75 80 92 71 62 59 63 66 75 93 100 96 96
61 72 80 90 67 75 43 32 32 57 58 55 57 52 52 56 56 54 54 67 72 71 72 70 70 59 50 52 47 56 82 85 80 81 84 82 67 66 75 78 84 91 99 98
55 72 87 87 91 62 36 48 47 52 70 56 59 52 48 50 52 52 68 69 72 73 76 75 72 71 63 51 51 44 42 46 53 63 73 80 80 78 76 78 85 94 100 98
49 61 78 90 84 87 49 50 42 42 87 53 56 58 56 51 77 65 84 85 76 74 76 70 70 68 65 63 55 58 54 48 84 90 91 87 84 87 83 84 86 92 100 99
71 89 81 95 96 81 53 42 37 56 66 47 49 49 52 61 59 72 84 75 73 77 78 76 67 63 64 69 71 70 74 73 87 94 94 91 89 92 94 90 95 96 98 100
72 82 92 90 93 81 40 45 49 59 47 46 46 45 48 43 44 66 74 71 69 79 75 70 67 68 61 73 85 90 86 88 86 100 100 98 91 90 92 96 100 100 100 100
96 69 82 74 71 48 47 51 53 41 44 48 46 46 43 47 73 79 80 77 83 92 90 86 85 86 77 79 93 100 100 99 99 100 100 100 100 99 100 100 100 100 100 100
96 88 75 70 59 72 67 52 49 48 48 50 50 48 39 53 76 75 76 72 77 93 90 91 100 99 98 99 99 100 100 99 100 100 100 100 100 100 100 100 100 100 100 100
92 89 90 88 79 71 68 55 61 54 52 54 55 53 54 52 63 77 83 84 93 95 84 97 99 98 99 100 99 99 100 100 100 100 100 100 100 100 100 100 100 100 100 99
94 100 100 100 94 94 86 63 67 56 61 56 49 48 50 54 61 67 91 99 100 95 90 93 99 100 100 100 99 99 100 100 100 100 100 99 100 100 100 100 100 100 97 96
Wind_Speed
8 4 12 11 11 10 10 8 11 1 5 7 9 14 9 12 16 14 21 22 23 24 31 38 34 29 24 19 15 11 17 17 18 20 19 20 18 17 16 29 39 33 43 45
4 17 11 10 9 10 12 14 20 12 11 13 13 20 10 8 8 19 23 21 17 20 30 37 34 31 26 20 16 14 18 17 18 19 21 23 21 17 17 31 41 44 48 42
15 6 16 13 14 15 15 17 14 15 14 16 12 20 8 6 8 22 30 24 17 21 39 42 39 35 27 23 18 17 19 16 15 15 15 18 23 22 20 28 48 47 46 42
13 16 17 13 18 16 18 17 17 15 10 8 6 13 9 9 15 14 24 27 18 23 35 46 42 36 31 24 20 19 19 16 12 12 16 18 23 28 28 27 47 47 45 42
11 8 19 22 19 17 13 17 15 16 9 4 4 4 4 4 9 15 16 26 16 23 38 49 47 39 30 24 21 19 19 16 12 11 11 16 20 27 29 34 37 40 42 42
13 11 4 7 8 15 12 14 15 13 5 10 7 6 6 4 8 7 16 26 18 18 36 43 45 36 30 25 23 19 20 17 14 12 11 15 20 26 30 38 44 44 45 48
8 22 17 9 7 7 6 3 4 3 2 5 6 5 14 10 12 16 19 23 31 22 38 46 44 40 34 29 26 22 21 20 18 16 14 14 18 20 26 38 41 47 45 47
7 7 13 7 18 6 8 9 5 8 5 4 7 5 5 4 8 18 20 17 17 21 39 49 45 41 35 29 26 24 23 21 22 22 19 16 13 17 22 28 34 44 51 48
5 6 3 5 12 15 9 7 8 5 3 3 4 5 7 5 11 17 15 28 19 30 33 44 42 39 34 29 27 26 24 23 24 24 23 21 19 19 19 25 30 38 48 50
5 8 5 3 4 12 10 5 4 3 8 6 4 4 5 3 11 19 16 16 14 8 23 38 42 38 32 28 26 26 24 24 27 26 26 25 24 23 22 26 33 37 46 52
7 4 4 1 2 4 5 10 1 4 4 10 1 5 5 6 8 9 14 16 27 17 12 18 40 37 32 29 28 27 25 26 28 30 29 27 26 25 25 28 32 35 37 34
8 5 4 5 4 4 4 4 6 4 2 3 4 5 2 6 6 7 9 22 28 31 27 23 27 37 35 31 29 29 27 27 27 31 33 32 28 30 29 28 28 32 33 37
8 5 4 4 3 7 6 6 5 4 4 5 3 3 3 12 12 11 11 21 27 31 23 7 16 22 31 34 31 30 29 29 27 30 35 34 33 34 34 32 32 33 33 33
6 5 3 2 2 1 2 6 8 4 3 1 12 6 4 4 9 6 16 10 11 20 24 29 7 5 12 22 31 31 31 30 30 31 33 38 38 36 37 33 32 35 35 34
5 3 5 6 2 3 3 3 4 3 1 1 3 1 5 5 10 1 17 12 11 11 21 24 29 4 14 15 30 32 33 31 34 34 34 35 38 37 37 37 34 34 35 35
3 3 2 2 6 6 2 4 3 4 4 10 9 0 3 3 18 7 7 14 14 13 15 20 22 24 13 17 16 30 34 34 34 36 37 35 33 35 36 38 37 36 36 36
6 4 4 1 8 4 3 2 5 5 9 13 3 2 7 13 12 12 9 12 12 17 17 12 20 20 18 15 13 8 25 34 37 39 38 37 35 34 35 33 37 39 39 37
2 3 3 3 5 0 3 10 2 12 9 11 10 7 10 16 18 16 17 13 14 18 19 20 19 20 22 20 16 13 9 25 33 40 40 40 37 35 35 33 34 34 38 41
6 2 0 1 1 6 4 5 4 3 5 5 8 7 7 11 7 15 16 16 16 18 18 21 22 22 21 21 18 13 10 17 30 36 46 43 40 36 35 33 33 37 36 38
6 4 3 2 1 3 2 5 10 4 3 2 7 6 7 11 4 2 10 13 16 17 17 20 23 24 23 22 22 18 13 13 23 34 37 40 37 37 35 36 36 35 35 37
4 1 7 2 1 6 6 6 11 3 4 1 10 14 12 5 4 7 9 14 17 17 19 21 23 29 26 23 21 18 12 9 16 23 28 36 37 34 36 37 36 37 37 42
6 6 3 3 2 6 4 2 1 3 2 7 13 12 11 8 9 9 11 15 18 20 19 19 24 27 29 22 20 18 13 9 10 16 20 30 34 35 35 37 39 38 40 39
4 5 5 6 6 4 9 6 5 11 3 16 14 10 9 9 8 9 11 14 16 15 15 17 19 22 23 19 17 16 13 7 7 9 14 23 30 34 36 38 41 38 36 36
6 5 1 4 3 3 7 10 5 3 18 15 12 11 8 7 7 10 13 16 18 17 20 20 19 21 20 16 16 13 9 7 8 9 12 17 22 26 30 34 36 38 37 38
4 2 3 3 3 1 8 9 8 21 16 14 12 11 10 7 8 10 12 14 15 17 20 21 20 18 18 18 16 13 8 5 10 14 17 21 25 29 32 33 33 37 34 35
5 4 2 1 8 3 3 5 2 15 13 9 8 10 10 10 11 13 13 14 15 16 19 19 17 15 15 16 16 13 7 5 11 17 20 23 27 29 31 32 32 22 27 29
Wind_Direction
219 185 219 196 213 232 239 248 251 191 237 292 265 268 265 291 318 296 278 231 232 214 197 193 200 205 209 217 222 232 197 196 197 198 204 208 201 204 187 196 191 194 188 185
257 236 210 213 222 236 238 248 260 275 266 260 272 271 241 265 276 298 288 250 235 209 191 190 197 202 208 222 216 209 196 196 196 203 209 212 209 207 207 178 185 179 177 185
223 230 198 203 219 228 236 236 250 249 267 266 271 276 290 295 297 304 299 287 249 203 195 192 197 201 205 218 209 204 194 193 199 202 205 214 209 208 195 176 173 180 179 184
247 239 246 223 223 209 237 230 242 250 243 255 183 280 261 272 283 281 280 285 262 226 204 197 198 200 207 214 201 200 192 200 202 196 193 194 203 203 200 185 169 176 179 182
224 199 203 225 224 213 234 246 235 240 242 223 220 268 320 180 272 273 273 278 267 231 207 199 203 204 202 206 198 197 192 197 198 193 196 188 200 202 204 197 184 178 179 181
238 286 212 231 228 229 233 250 264 244 214 245 171 178 256 210 240 277 286 270 283 233 215 200 199 196 199 196 197 196 187 193 196 196 194 190 198 201 200 200 192 188 185 186
258 253 260 257 280 262 185 173 244 249 228 240 195 220 261 266 267 262 263 270 284 271 195 193 193 194 195 193 195 197 191 192 195 196 197 190 195 196 200 203 204 192 193 195
193 287 214 219 214 200 208 179 179 210 189 243 208 235 246 244 283 302 261 264 316 201 183 192 191 193 193 192 194 199 195 194 197 196 200 199 198 202 202 203 206 206 202 187
207 244 266 227 194 187 228 227 195 182 180 128 223 283 302 14 2 344 33 3 266 184 185 189 189 194 193 196 193 200 198 195 203 201 203 204 203 208 201 210 212 210 202 198
259 262 258 296 124 220 203 175 210 241 197 236 227 235 246 360 48 328 3 7 40 246 186 190 192 194 196 200 195 199 201 201 200 206 205 210 210 213 214 213 213 208 211 203
358 211 260 297 26 208 176 226 179 133 152 220 151 262 204 162 105 316 360 349 8 22 248 223 197 198 197 197 198 201 200 202 200 204 205 210 211 214 219 218 219 219 219 203
334 300 222 209 216 231 185 206 160 156 170 155 155 267 101 179 162 136 352 329 339 354 347 231 221 203 198 198 200 204 204 204 205 204 206 212 211 212 217 220 220 220 216 215
318 341 271 176 335 19 31 18 18 127 126 179 150 250 89 88 56 41 48 335 5 26 32 67 193 216 210 201 203 206 209 209 205 204 206 210 214 215 219 218 217 219 221 222
306 260 4 38 191 211 359 32 35 52 65 269 219 224 121 121 119 16 351 172 279 7 31 46 117 171 244 236 218 210 212 213 211 207 209 208 214 216 219 219 218 218 219 223
152 275 333 297 353 211 107 14 2 122 237 88 302 111 203 179 144 205 349 21 117 23 26 28 33 78 0 281 249 236 221 217 215 211 212 214 213 215 217 220 218 217 218 222
303 272 329 281 351 38 308 291 271 246 132 290 262 287 25 107 102 122 50 58 63 79 50 20 31 42 22 24 248 247 240 234 224 220 219 215 214 220 219 220 221 221 222 223
341 345 358 323 336 303 319 6 216 222 172 196 274 25 93 102 97 97 60 66 57 35 40 72 26 14 14 23 13 290 242 241 236 236 226 222 217 218 222 222 220 223 224 223
309 341 7 288 340 251 275 309 47 97 53 87 94 75 84 117 106 81 55 59 41 27 20 21 21 16 357 356 1 19 240 243 241 239 238 235 225 221 222 223 223 222 225 225
170 144 310 157 284 293 323 20 14 324 54 85 95 79 66 150 116 49 58 47 39 16 10 8 4 3 358 349 341 337 317 269 244 248 237 236 236 227 222 223 223 222 224 221
188 145 133 72 167 241 219 317 345 309 114 175 111 92 62 56 72 304 51 46 28 14 3 360 1 352 346 349 341 330 330 314 226 230 230 232 234 232 228 225 222 220 222 223
170 75 199 178 234 286 272 309 348 80 222 161 109 93 86 79 100 61 34 23 16 8 358 355 357 355 345 336 339 330 326 317 234 224 219 223 226 227 227 226 225 223 222 221
191 160 170 137 139 256 291 330 144 249 289 106 116 114 97 67 30 23 8 7 4 2 1 0 355 351 346 332 337 333 324 312 280 251 214 212 219 222 225 223 221 217 213 209
224 180 171 171 204 265 352 302 66 354 271 135 120 98 75 45 25 3 3 6 6 4 355 354 356 353 349 332 338 335 331 310 293 271 231 201 200 206 210 208 206 197 192 185
317 333 260 133 204 70 6 57 93 272 124 118 104 86 59 45 13 354 353 354 350 360 358 360 6 359 358 350 338 334 322 296 219 208 199 195 192 183 183 186 182 180 175 172
254 298 334 304 13 348 39 42 87 127 122 116 103 86 73 39 18 3 344 343 355 354 350 359 6 3 358 352 345 332 321 275 211 186 178 170 173 169 165 165 166 170 168 170
7 7 12 213 353 328 334 1 282 118 119 99 73 63 47 33 25 16 5 354 352 353 357 359 6 0 358 353 346 336 310 241 199 173 165 165 160 161 160 152 137 132 136 132